Date String (YYYY-MM-DD hh:mm:ss) UTC,Instrument flags,absolute air pressure of the measurement (hPa),sample flow rate (lpm),inlet stack bypass flow (lpm),air temperature of the measurement (°C),ambient temperature measured by the external sensor (°C),aerosol sample conditioner tube jacket temperature (°C),OPC LED temperature (°C),internal box temperature (°C),relative humidity of the measurement (%),span deviation,mass concentration of particles derived from Lorenz-Mie calculation of OPC scattering (μg/m³),mass concentration of particles derived from Lorenz-Mie calculation of OPC scattering (μg/m³),mass concentration of particles derived from Lorenz-Mie calculation of OPC scattering (μg/m³)
DateTimeUTC,F1_M11,P_M11,Q1_M11,Q2_M11,T1_M11,T2_M11,T3_M11,T4_M11,T5_M11,U1_M11,ZSPAN_M11,X2_M11,X0_M11,X1_M11
2024-06-16 23:00:00,SystemResetWarning,0822.4,5.00,000.00,028.7,027.3,000.0,037.1,030.3,027.7,0000.0,0007.39,0025.20,0005.52
2024-06-16 23:01:00,SystemResetWarning,0822.4,5.00,000.00,028.7,027.7,000.0,037.1,030.5,027.6,0000.0,0007.37,0024.93,0005.50
2024-06-16 23:02:00,SystemResetWarning,0822.4,5.00,000.00,028.8,028.1,000.0,037.1,030.7,027.3,0000.0,0007.39,0023.37,0005.49
2024-06-16 23:03:00,SystemResetWarning,0822.5,4.99,000.00,028.9,028.3,000.0,037.1,030.8,027.3,0000.0,0007.43,0023.37,0005.49
2024-06-16 23:04:00,SystemResetWarning,0822.4,4.99,000.00,029.0,028.6,000.0,037.2,031.0,027.7,0000.0,0007.40,0023.48,0005.48
2024-06-16 23:05:00,SystemResetWarning,0822.4,5.00,000.00,029.1,028.8,000.0,037.2,031.1,027.1,0000.0,0007.39,0022.28,0005.47
2024-06-16 23:06:00,SystemResetWarning,0822.3,4.99,000.00,029.1,027.9,000.0,037.3,030.6,026.8,0000.0,0007.34,0021.40,0005.47
2024-06-16 23:07:00,SystemResetWarning,0822.3,5.01,000.00,028.8,025.8,000.0,037.3,029.6,027.3,0000.0,0007.26,0021.25,0005.45
2024-06-16 23:08:00,SystemResetWarning,0822.2,5.01,000.00,028.5,025.5,000.0,037.3,029.4,028.4,0000.0,0007.28,0021.28,0005.45
2024-06-16 23:09:00,SystemResetWarning,0822.2,5.01,000.00,028.5,026.0,000.0,037.2,029.6,028.0,0000.0,0007.37,0022.69,0005.46
2024-06-16 23:10:00,SystemResetWarning,0822.2,4.99,000.00,028.5,026.5,000.0,037.1,029.9,028.0,0000.0,0007.41,0023.77,0005.47
2024-06-16 23:11:00,SystemResetWarning,0822.2,5.00,000.00,028.6,027.0,000.0,037.1,030.2,028.1,0000.0,0007.41,0023.46,0005.46
2024-06-16 23:12:00,SystemResetWarning,0822.3,5.00,000.00,028.6,027.4,000.0,037.0,030.4,027.8,0000.0,0007.43,0023.75,0005.47
2024-06-16 23:13:00,SystemResetWarning,0822.2,5.00,000.00,028.7,027.8,000.0,037.0,030.6,027.6,0000.0,0007.41,0024.54,0005.47
2024-06-16 23:14:00,SystemResetWarning,0822.2,5.00,000.00,028.8,028.2,000.0,037.1,030.7,027.9,0000.0,0007.30,0024.51,0005.45
2024-06-16 23:15:00,SystemResetWarning,0822.2,5.00,000.00,028.9,028.4,000.0,037.1,030.9,027.8,0000.0,0007.28,0025.35,0005.44
2024-06-16 23:16:00,SystemResetWarning,0822.2,5.00,000.00,029.0,028.7,000.0,037.1,031.0,027.2,0000.0,0007.25,0025.81,0005.46
2024-06-16 23:17:00,SystemResetWarning,0822.2,4.99,000.00,029.2,028.9,000.0,037.2,031.1,027.0,0000.0,0007.28,0026.44,0005.47
2024-06-16 23:18:00,SystemResetWarning,0822.2,4.98,000.00,029.2,028.5,000.0,037.2,030.9,026.7,0000.0,0007.32,0029.49,0005.48
2024-06-16 23:19:00,SystemResetWarning,0822.1,5.00,000.00,029.0,026.3,000.0,037.3,029.9,027.2,0000.0,0007.35,0030.20,0005.48
2024-06-16 23:20:00,SystemResetWarning,0822.0,5.01,000.00,028.6,025.4,000.0,037.3,029.4,028.1,0000.0,0007.29,0028.31,0005.47
2024-06-16 23:21:00,SystemResetWarning,0822.1,5.02,000.00,028.5,025.9,000.0,037.2,029.6,028.3,0000.0,0007.22,0027.75,0005.46
2024-06-16 23:22:00,SystemResetWarning,0822.1,5.00,000.00,028.5,026.4,000.0,037.1,029.8,028.0,0000.0,0007.23,0027.13,0005.46
2024-06-16 23:23:00,SystemResetWarning,0822.0,4.99,000.00,028.6,026.9,000.0,037.1,030.1,027.9,0000.0,0007.26,0027.72,0005.45
2024-06-16 23:24:00,SystemResetWarning,0822.0,5.01,000.00,028.6,027.4,000.0,037.1,030.3,028.5,0000.0,0007.24,0027.48,0005.44
2024-06-16 23:25:00,SystemResetWarning,0822.1,5.00,000.00,028.7,027.8,000.0,037.1,030.5,028.1,0000.0,0007.30,0027.16,0005.46
2024-06-16 23:26:00,SystemResetWarning,0822.1,5.00,000.00,028.8,028.1,000.0,037.1,030.7,027.5,0000.0,0007.32,0025.56,0005.46
2024-06-16 23:27:00,SystemResetWarning,0822.1,5.00,000.00,028.9,028.4,000.0,037.1,030.8,027.7,0000.0,0007.32,0025.54,0005.45
2024-06-16 23:28:00,SystemResetWarning,0822.1,5.00,000.00,029.0,028.6,000.0,037.1,031.0,027.6,0000.0,0007.37,0026.54,0005.44
2024-06-16 23:29:00,SystemResetWarning,0822.1,5.00,000.00,029.1,028.8,000.0,037.2,031.1,028.0,0001.4,0007.34,0024.71,0005.44
2024-06-16 23:30:00,SystemResetWarning,0822.1,4.99,000.00,029.2,028.9,000.0,037.3,031.1,027.2,0000.9,0007.29,0023.68,0005.43
2024-06-16 23:31:00,SystemResetWarning,0822.0,5.00,000.00,029.1,027.2,000.0,037.3,030.2,027.0,0000.9,0007.28,0023.42,0005.42
2024-06-16 23:32:00,SystemResetWarning,0821.9,5.01,000.00,028.7,025.6,000.0,037.3,029.5,027.6,0000.0,0007.31,0023.74,0005.42
2024-06-16 23:33:00,SystemResetWarning,0822.0,5.02,000.00,028.6,025.9,000.0,037.3,029.6,027.7,0000.6,0007.31,0023.69,0005.43
2024-06-16 23:34:00,SystemResetWarning,0822.0,4.99,000.00,028.6,026.4,000.0,037.2,029.9,027.8,0000.8,0007.29,0022.99,0005.44
2024-06-16 23:35:00,SystemResetWarning,0821.9,5.00,000.00,028.6,026.9,000.0,037.1,030.2,028.4,0003.2,0007.30,0023.28,0005.44
2024-06-16 23:36:00,SystemResetWarning,0821.9,5.01,000.00,028.7,027.4,000.0,037.1,030.4,028.3,0002.9,0007.30,0024.03,0005.42
2024-06-16 23:37:00,SystemResetWarning,0821.9,5.00,000.00,028.8,027.8,000.0,037.1,030.6,028.9,0000.0,0007.24,0024.75,0005.40
2024-06-16 23:38:00,SystemResetWarning,0821.9,5.00,000.00,028.9,028.1,000.0,037.1,030.7,028.0,0000.0,0007.28,0024.31,0005.42
2024-06-16 23:39:00,SystemResetWarning,0821.9,4.99,000.00,029.0,028.4,000.0,037.1,030.9,027.6,0000.0,0007.23,0022.94,0005.42
2024-06-16 23:40:00,SystemResetWarning,0821.9,5.01,000.00,029.1,028.7,000.0,037.2,031.0,027.6,0000.0,0007.21,0021.84,0005.43
2024-06-16 23:41:00,SystemResetWarning,0821.9,5.00,000.00,029.2,028.9,000.0,037.2,031.1,027.5,0000.0,0007.21,0021.47,0005.42
2024-06-16 23:42:00,SystemResetWarning,0821.9,4.98,000.00,029.1,027.4,000.0,037.3,030.4,027.6,0000.0,0007.17,0021.55,0005.42
2024-06-16 23:43:00,SystemResetWarning,0821.8,5.01,000.00,028.7,025.5,000.0,037.3,029.5,027.7,0000.0,0007.18,0021.65,0005.43
2024-06-16 23:44:00,SystemResetWarning,0821.8,5.01,000.00,028.5,025.6,000.0,037.3,029.5,028.5,0000.0,0007.18,0022.39,0005.43
2024-06-16 23:45:00,SystemResetWarning,0821.9,4.99,000.00,028.5,026.2,000.0,037.2,029.7,028.8,0000.0,0007.12,0022.96,0005.43
2024-06-16 23:46:00,SystemResetWarning,0822.0,5.00,000.00,028.5,026.7,000.0,037.1,030.0,028.4,0000.0,0007.07,0022.09,0005.43
2024-06-16 23:47:00,SystemResetWarning,0821.9,5.00,000.00,028.6,027.2,000.0,037.1,030.2,028.3,0000.0,0007.06,0020.76,0005.44
2024-06-16 23:48:00,SystemResetWarning,0821.9,5.00,000.00,028.7,027.6,000.0,037.0,030.4,028.6,0000.0,0007.12,0020.61,0005.45
2024-06-16 23:49:00,SystemResetWarning,0822.0,4.99,000.00,028.8,028.0,000.0,037.1,030.6,028.7,0000.0,0007.14,0020.44,0005.46
2024-06-16 23:50:00,SystemResetWarning,0822.0,5.00,000.00,028.9,028.3,000.0,037.1,030.8,028.2,0000.0,0007.08,0020.68,0005.44
2024-06-16 23:51:00,SystemResetWarning,0822.0,5.00,000.00,029.0,028.5,000.0,037.1,030.9,027.8,0000.0,0007.14,0020.54,0005.43
2024-06-16 23:52:00,SystemResetWarning,0822.0,5.00,000.00,029.1,028.8,000.0,037.2,031.1,027.3,0000.0,0007.21,0022.21,0005.43
2024-06-16 23:53:00,SystemResetWarning,0821.9,5.00,000.00,029.2,028.7,000.0,037.2,031.0,027.1,0000.0,0007.27,0023.50,0005.45
2024-06-16 23:54:00,SystemResetWarning,0821.8,4.98,000.00,029.0,026.9,000.0,037.3,030.1,027.6,0000.0,0007.24,0024.08,0005.45
2024-06-16 23:55:00,SystemResetWarning,0821.7,5.01,000.00,028.7,025.5,000.0,037.3,029.5,027.9,0000.0,0007.26,0023.57,0005.45
2024-06-16 23:56:00,SystemResetWarning,0821.7,5.01,000.00,028.5,025.9,000.0,037.3,029.6,028.7,0000.0,0007.30,0022.95,0005.44
2024-06-16 23:57:00,SystemResetWarning,0821.7,5.00,000.00,028.5,026.4,000.0,037.2,029.8,029.2,0000.0,0007.30,0023.57,0005.44
2024-06-16 23:58:00,SystemResetWarning,0821.8,5.01,000.00,028.6,026.8,000.0,037.1,030.1,028.9,0000.0,0007.24,0024.33,0005.43
2024-06-16 23:59:00,SystemResetWarning,0821.8,5.00,000.00,028.6,027.3,000.0,037.1,030.3,028.2,0000.0,0007.18,0024.98,0005.41
